Погода в Чернозерье

Россия / Пензенская область     53°35′11″N   44°20′13″E
темп.,
°C
ветер,
м/с
пор.,
м/с
влажн.,
%
обл.,
%
осадки,
мм/ч
давл.,
гПа
погр.,
м
18 апреля, вс
вс1800:00+9юз6987100 0.4 1019603
03:00+8зсз1292100 2.1 1019194
06:00+8ссв2394100 0.4 1019246
09:00+8всв2392100 2.1 1019257
12:00+8св2391100 0.9 1020268
15:00+7в3690100 1.3 1020369
18:00+7св4991100 0.1 1020338
21:00+7всв4888100 0.2 1020297
19 апреля, пн
пн1900:00+7всв51177100 0.1 1020410
03:00+6всв71284100 0.1 1020458
06:00+5всв61291100 0.3 1020512
09:00+3всв71395100 5.2 1021581
12:00+5в71285100 2.8 1021931
15:00+6в71176100 3.3 1021873
18:00+6в61182100 0.0 1021884
21:00+6в61186100 0.6 1022973
20 апреля, вт
вт2000:00+5в81384100 0.0 1022668
03:00+4в7138599 0.0 1023625
06:00+3вюв71394100 0.0 1023636
09:00+5вюв8147998 0.0 1023773
12:00+8вюв9126589 0.0 10221049
15:00+8вюв101561100 0.0 1021993
18:00+8вюв101761100 0.0 10191042
21:00+7вюв111963100 0.1 10181097
21 апреля, ср
ср2100:00+5вюв122177100 2.3 1016980
03:00+5юв122281100 5.4 1014990
06:00+4юв122288100 1.8 1014827
09:00+4юв112091100 1.8 1014839
12:00+4ююв101991100 0.2 1015807
15:00+5ююв101892100 0.3 1016815
18:00+5ююв91694100 0.3 1018738
21:00+5ююв61197100 0.5 1020314
22 апреля, чт
чт2200:00+5ююв61297100 0.2 1021382
03:00+5ююв5997100 0.6 1022396
06:00+5ююв589899 1.1 1023242
09:00+7ююв5791100 1.3 1024482
12:00+10ю567693 0.4 1024870
15:00+13ююз346297 2.1 10241297
18:00+9сз3575100 0.3 1025143
21:00+9ю0075100 0.3 102610